| time (UTC) | temp F | wind direction | speed knots | gust knots | rain 1hr in | rain 24hr in | rain mn in | humidity % | barometer mb |
| 20260901005329 | 92 | 121 | 2.6 | 5.2 | 0.00 | 0.00 | 0.00 | 38 | 1015.9 |
| 20260901004330 | 92 | 167 | 2.6 | 5.2 | 0.00 | 0.00 | 0.00 | 38 | 1015.7 |
| 20260901003330 | 93 | 160 | 3.5 | 6.1 | 0.00 | 0.00 | 0.00 | 37 | 1015.6 |
| 20260901002324 | 93 | 171 | 2.6 | 6.1 | 0.00 | 0.00 | 0.00 | 37 | 1015.6 |
| 20260901001809 | 94 | 174 | 3.5 | 5.2 | 0.00 | 0.00 | 0.00 | 36 | 1015.5 |
| 20260901000325 | 95 | 184 | 5.2 | 7.8 | 0.00 | 0.00 | 0.00 | 34 | 1015.5 |
| 20260831235804 | 96 | 180 | 5.2 | 7.8 | 0.00 | 0.00 | 0.00 | 33 | 1015.5 |
| 20260831234322 | 96 | 176 | 4.3 | 7.8 | 0.00 | 0.00 | 0.00 | 34 | 1015.6 |
| 20260831233322 | 96 | 194 | 3.5 | 6.1 | 0.00 | 0.00 | 0.00 | 33 | 1015.6 |
| 20260831232756 | 96 | 221 | 3.5 | 8.7 | 0.00 | 0.00 | 0.00 | 33 | 1015.6 |
| 20260831231322 | 96 | 183 | 5.2 | 8.7 | 0.00 | 0.00 | 0.00 | 32 | 1015.6 |
| 20260831230323 | 98 | 174 | 5.2 | 10.4 | 0.00 | 0.00 | 0.00 | 30 | 1015.7 |
| 20260831224321 | 98 | 157 | 5.2 | 13.0 | 0.00 | 0.00 | 0.00 | 30 | 1015.7 |
| 20260831223803 | 98 | 146 | 5.2 | 9.6 | 0.00 | 0.00 | 0.00 | 28 | 1015.9 |
| 20260831222321 | 98 | 165 | 4.3 | 8.7 | 0.00 | 0.00 | 0.00 | 29 | 1015.9 |
| 20260831221322 | 98 | 211 | 7.8 | 13.9 | 0.00 | 0.00 | 0.00 | 29 | 1016.0 |
| 20260831220321 | 98 | 203 | 3.5 | 9.6 | 0.00 | 0.00 | 0.00 | 30 | 1016.0 |
| 20260831215321 | 99 | 202 | 7.0 | 11.3 | 0.00 | 0.00 | 0.00 | 28 | 1016.0 |
| 20260831214806 | 100 | 173 | 5.2 | 13.0 | 0.00 | 0.00 | 0.00 | 28 | 1016.0 |
| 20260831213322 | 99 | 153 | 3.5 | 7.8 | 0.00 | 0.00 | 0.00 | 29 | 1016.0 |
| 20260831212323 | 100 | 134 | 2.6 | 9.6 | 0.00 | 0.00 | 0.00 | 29 | 1016.2 |
| 20260831211322 | 100 | 84 | 3.5 | 9.6 | 0.00 | 0.00 | 0.00 | 28 | 1016.2 |
| 20260831210322 | 100 | 178 | 4.3 | 13.9 | 0.00 | 0.00 | 0.00 | 29 | 1016.1 |
| 20260831205321 | 100 | 306 | 2.6 | 7.0 | 0.00 | 0.00 | 0.00 | 30 | 1016.4 |
| 20260831204321 | 99 | 320 | 1.7 | 7.0 | 0.00 | 0.00 | 0.00 | 32 | 1016.4 |
| 20260831203321 | 98 | 178 | 4.3 | 11.3 | 0.00 | 0.00 | 0.00 | 32 | 1016.7 |
| 20260831202322 | 99 | 180 | 5.2 | 13.0 | 0.00 | 0.00 | 0.00 | 31 | 1016.7 |
| 20260831201319 | 99 | 169 | 5.2 | 14.8 | 0.00 | 0.00 | 0.00 | 31 | 1016.8 |
| 20260831200319 | 99 | 238 | 1.7 | 7.0 | 0.00 | 0.00 | 0.00 | 31 | 1016.8 |
| 20260831195318 | 99 | 118 | 5.2 | 12.2 | 0.00 | 0.00 | 0.00 | 31 | 1017.0 |
| 20260831194319 | 98 | 119 | 2.6 | 7.0 | 0.00 | 0.00 | 0.00 | 33 | 1017.0 |
| 20260831193316 | 97 | 195 | 1.7 | 5.2 | 0.00 | 0.00 | 0.00 | 35 | 1017.2 |
| 20260831192315 | 96 | 180 | 2.6 | 7.8 | 0.00 | 0.00 | 0.00 | 35 | 1017.4 |
| 20260831191317 | 96 | 192 | 5.2 | 10.4 | 0.00 | 0.00 | 0.00 | 34 | 1017.5 |
| 20260831190315 | 98 | 184 | 4.3 | 16.5 | 0.00 | 0.00 | 0.00 | 33 | 1017.6 |
| 20260831185317 | 98 | 154 | 4.3 | 11.3 | 0.00 | 0.00 | 0.00 | 33 | 1017.6 |
| 20260831184315 | 96 | 165 | 3.5 | 8.7 | 0.00 | 0.00 | 0.00 | 35 | 1017.8 |
| 20260831183319 | 96 | 292 | 3.5 | 6.1 | 0.00 | 0.00 | 0.00 | 35 | 1017.8 |
| 20260831182316 | 97 | 148 | 3.5 | 12.2 | 0.00 | 0.00 | 0.00 | 34 | 1018.1 |
| 20260831181309 | 98 | 278 | 2.6 | 7.8 | 0.00 | 0.00 | 0.00 | 33 | 1018.3 |
| 20260831180308 | 98 | 299 | 2.6 | 7.0 | 0.00 | 0.00 | 0.00 | 36 | 1018.4 |
| 20260831175308 | 97 | 284 | 1.7 | 5.2 | 0.00 | 0.00 | 0.00 | 39 | 1018.6 |
| 20260831174308 | 96 | 217 | 2.6 | 7.8 | 0.00 | 0.00 | 0.00 | 38 | 1018.8 |
| 20260831173753 | 97 | 145 | 2.6 | 7.0 | 0.00 | 0.00 | 0.00 | 37 | 1018.8 |
| 20260831172756 | 95 | 162 | 4.3 | 9.6 | 0.00 | 0.00 | 0.00 | 42 | 1019.1 |
| 20260831171309 | 94 | 155 | 3.5 | 7.8 | 0.00 | 0.00 | 0.00 | 41 | 1019.1 |
| 20260831170308 | 94 | 198 | 3.5 | 10.4 | 0.00 | 0.00 | 0.00 | 42 | 1019.3 |
| 20260831165308 | 96 | 203 | 2.6 | 8.7 | 0.00 | 0.00 | 0.00 | 41 | 1019.4 |
| 20260831164303 | 94 | 247 | 2.6 | 10.4 | 0.00 | 0.00 | 0.00 | 42 | 1019.4 |
| 20260831163303 | 94 | 204 | 2.6 | 7.0 | 0.00 | 0.00 | 0.00 | 43 | 1019.4 |
| 20260831162305 | 94 | 229 | 5.2 | 13.9 | 0.00 | 0.00 | 0.00 | 43 | 1019.5 |
| 20260831161303 | 93 | 191 | 5.2 | 12.2 | 0.00 | 0.00 | 0.00 | 44 | 1019.4 |
| 20260831160301 | 93 | 82 | 3.5 | 10.4 | 0.00 | 0.00 | 0.00 | 45 | 1019.4 |
| 20260831155301 | 92 | 175 | 5.2 | 9.6 | 0.00 | 0.00 | 0.00 | 46 | 1019.3 |
| 20260831154302 | 92 | 192 | 4.3 | 11.3 | 0.00 | 0.00 | 0.00 | 47 | 1019.3 |
| 20260831153301 | 91 | 209 | 5.2 | 13.0 | 0.00 | 0.00 | 0.00 | 48 | 1019.3 |
| 20260831152301 | 90 | 155 | 7.0 | 11.3 | 0.00 | 0.00 | 0.00 | 49 | 1019.4 |
| 20260831151303 | 89 | 166 | 6.1 | 10.4 | 0.00 | 0.00 | 0.00 | 50 | 1019.3 |
| 20260831150740 | 89 | 157 | 7.0 | 13.0 | 0.00 | 0.00 | 0.00 | 51 | 1019.2 |
| 20260831145306 | 88 | 202 | 7.8 | 12.2 | 0.00 | 0.00 | 0.00 | 51 | 1019.2 |
| 20260831144303 | 88 | 206 | 6.1 | 10.4 | 0.00 | 0.00 | 0.00 | 52 | 1019.1 |
| 20260831143300 | 87 | 175 | 7.0 | 10.4 | 0.00 | 0.00 | 0.00 | 54 | 1019.2 |
| 20260831141302 | 86 | 193 | 6.1 | 13.0 | 0.00 | 0.00 | 0.00 | 57 | 1019.2 |
| 20260831140302 | 85 | 168 | 4.3 | 8.7 | 0.00 | 0.00 | 0.00 | 58 | 1019.3 |
| 20260831135258 | 83 | 195 | 2.6 | 6.1 | 0.00 | 0.00 | 0.00 | 62 | 1019.3 |
| 20260831134258 | 82 | 158 | 1.7 | 3.5 | 0.00 | 0.00 | 0.00 | 63 | 1019.2 |
| 20260831133301 | 81 | 169 | 0.9 | 3.5 | 0.00 | 0.00 | 0.00 | 64 | 1018.9 |
| 20260831132258 | 80 | 162 | 0.0 | 0.0 | 0.00 | 0.00 | 0.00 | 66 | 1018.9 |
| 20260831131258 | 80 | 162 | 0.0 | 0.0 | 0.00 | 0.00 | 0.00 | 67 | 1018.8 |
| 20260831130256 | 79 | 162 | 0.0 | 0.0 | 0.00 | 0.00 | 0.00 | 68 | 1018.6 |
| 20260831125254 | 78 | 162 | 0.0 | 0.0 | 0.00 | 0.00 | 0.00 | 68 | 1018.6 |
| 20260831124257 | 78 | 162 | 0.0 | 0.0 | 0.00 | 0.00 | 0.00 | 68 | 1018.4 |
| 20260831123254 | 78 | 162 | 0.0 | 0.0 | 0.00 | 0.00 | 0.00 | 68 | 1018.3 |
| 20260831122253 | 77 | 162 | 0.0 | 0.0 | 0.00 | 0.00 | 0.00 | 68 | 1018.1 |
| 20260831120252 | 76 | 193 | 0.0 | 0.0 | 0.00 | 0.00 | 0.00 | 69 | 1018.0 |
| 20260831115252 | 76 | 163 | 0.0 | 0.0 | 0.00 | 0.00 | 0.00 | 67 | 1017.8 |
| 20260831114251 | 77 | 163 | 0.0 | 0.0 | 0.00 | 0.00 | 0.00 | 66 | 1017.7 |
| 20260831113252 | 77 | 163 | 0.0 | 0.0 | 0.00 | 0.00 | 0.00 | 66 | 1017.6 |
| 20260831112252 | 77 | 163 | 0.0 | 0.9 | 0.00 | 0.00 | 0.00 | 66 | 1017.4 |
| 20260831111253 | 77 | 163 | 0.0 | 0.0 | 0.00 | 0.00 | 0.00 | 65 | 1017.4 |
| 20260831110246 | 78 | 163 | 0.0 | 0.0 | 0.00 | 0.00 | 0.00 | 64 | 1017.3 |
| 20260831104246 | 78 | 155 | 0.9 | 2.6 | 0.00 | 0.00 | 0.00 | 63 | 1017.3 |
| 20260831103746 | 78 | 142 | 1.7 | 2.6 | 0.00 | 0.00 | 0.00 | 63 | 1017.1 |
| 20260831102247 | 79 | 150 | 1.7 | 2.6 | 0.00 | 0.00 | 0.00 | 62 | 1017.0 |
| 20260831101248 | 79 | 155 | 2.6 | 4.3 | 0.00 | 0.00 | 0.00 | 62 | 1017.1 |
| 20260831100246 | 79 | 166 | 2.6 | 4.3 | 0.00 | 0.00 | 0.00 | 62 | 1017.2 |
| 20260831095245 | 79 | 161 | 1.7 | 3.5 | 0.00 | 0.00 | 0.00 | 61 | 1017.2 |
| 20260831094244 | 80 | 163 | 2.6 | 4.3 | 0.00 | 0.00 | 0.00 | 60 | 1017.0 |
| 20260831093244 | 80 | 157 | 3.5 | 5.2 | 0.00 | 0.00 | 0.00 | 59 | 1017.0 |
| 20260831092243 | 80 | 157 | 4.3 | 6.1 | 0.00 | 0.00 | 0.00 | 59 | 1016.9 |
| 20260831091243 | 81 | 151 | 5.2 | 7.8 | 0.00 | 0.00 | 0.00 | 58 | 1016.9 |
| 20260831090241 | 81 | 163 | 6.1 | 10.4 | 0.00 | 0.00 | 0.00 | 57 | 1016.8 |
| 20260831085242 | 81 | 171 | 6.1 | 10.4 | 0.00 | 0.00 | 0.00 | 56 | 1016.8 |
| 20260831084240 | 81 | 165 | 7.0 | 10.4 | 0.00 | 0.00 | 0.00 | 56 | 1016.8 |
| 20260831083241 | 81 | 132 | 7.0 | 9.6 | 0.00 | 0.00 | 0.00 | 55 | 1016.7 |
| 20260831082241 | 81 | 165 | 7.0 | 11.3 | 0.00 | 0.00 | 0.00 | 55 | 1016.6 |
| 20260831081723 | 81 | 159 | 7.0 | 10.4 | 0.00 | 0.00 | 0.00 | 55 | 1016.6 |
| 20260831080241 | 80 | 170 | 5.2 | 8.7 | 0.00 | 0.00 | 0.00 | 56 | 1016.6 |
| 20260831074236 | 80 | 155 | 2.6 | 4.3 | 0.00 | 0.00 | 0.00 | 54 | 1016.5 |
| 20260831073234 | 81 | 157 | 2.6 | 5.2 | 0.00 | 0.00 | 0.00 | 54 | 1016.5 |
| 20260831072235 | 81 | 151 | 2.6 | 4.3 | 0.00 | 0.00 | 0.00 | 53 | 1016.8 |
| 20260831071234 | 81 | 153 | 3.5 | 6.1 | 0.00 | 0.00 | 0.00 | 53 | 1016.8 |
| 20260831070235 | 81 | 157 | 3.5 | 6.1 | 0.00 | 0.00 | 0.00 | 53 | 1016.6 |
| 20260831065235 | 80 | 153 | 3.5 | 5.2 | 0.00 | 0.00 | 0.00 | 53 | 1016.8 |
| 20260831064237 | 80 | 156 | 4.3 | 6.1 | 0.00 | 0.00 | 0.00 | 53 | 1016.8 |
| 20260831063236 | 80 | 163 | 3.5 | 5.2 | 0.00 | 0.00 | 0.00 | 53 | 1016.9 |
| 20260831062713 | 80 | 162 | 4.3 | 7.8 | 0.00 | 0.00 | 0.00 | 53 | 1017.0 |
| 20260831061233 | 80 | 160 | 4.3 | 7.8 | 0.00 | 0.00 | 0.00 | 52 | 1017.0 |
| 20260831060232 | 81 | 178 | 3.5 | 6.1 | 0.00 | 0.00 | 0.00 | 51 | 1017.1 |
| 20260831054229 | 81 | 183 | 2.6 | 4.3 | 0.00 | 0.00 | 0.00 | 50 | 1016.9 |
| 20260831053229 | 81 | 172 | 2.6 | 5.2 | 0.00 | 0.00 | 0.00 | 50 | 1016.8 |
| 20260831052231 | 81 | 157 | 1.7 | 4.3 | 0.00 | 0.00 | 0.00 | 50 | 1016.7 |
| 20260831051231 | 81 | 169 | 1.7 | 4.3 | 0.00 | 0.00 | 0.00 | 50 | 1016.7 |
| 20260831050231 | 82 | 163 | 1.7 | 3.5 | 0.00 | 0.00 | 0.00 | 50 | 1016.5 |
| 20260831045230 | 83 | 144 | 1.7 | 2.6 | 0.00 | 0.00 | 0.00 | 48 | 1016.6 |
| 20260831044228 | 83 | 138 | 1.7 | 4.3 | 0.00 | 0.00 | 0.00 | 49 | 1016.5 |
| 20260831043228 | 83 | 148 | 1.7 | 4.3 | 0.00 | 0.00 | 0.00 | 49 | 1016.5 |
| 20260831042230 | 83 | 145 | 1.7 | 5.2 | 0.00 | 0.00 | 0.00 | 50 | 1016.5 |
| 20260831041229 | 84 | 155 | 2.6 | 5.2 | 0.00 | 0.00 | 0.00 | 49 | 1016.5 |
| 20260831040712 | 84 | 142 | 3.5 | 5.2 | 0.00 | 0.00 | 0.00 | 50 | 1016.4 |
| 20260831035228 | 84 | 142 | 2.6 | 5.2 | 0.00 | 0.00 | 0.00 | 50 | 1016.3 |
| 20260831034715 | 84 | 140 | 3.5 | 7.0 | 0.00 | 0.00 | 0.00 | 50 | 1016.3 |
| 20260831033229 | 85 | 148 | 4.3 | 8.7 | 0.00 | 0.00 | 0.00 | 50 | 1016.2 |
| 20260831032223 | 85 | 146 | 5.2 | 9.6 | 0.00 | 0.00 | 0.00 | 50 | 1016.1 |
| 20260831031706 | 85 | 150 | 5.2 | 10.4 | 0.00 | 0.00 | 0.00 | 50 | 1016.1 |
| 20260831025711 | 86 | 134 | 5.2 | 9.6 | 0.00 | 0.00 | 0.00 | 48 | 1015.7 |
| 20260831024221 | 86 | 143 | 4.3 | 7.8 | 0.00 | 0.00 | 0.00 | 48 | 1015.7 |
| 20260831023219 | 86 | 142 | 5.2 | 7.0 | 0.00 | 0.00 | 0.00 | 46 | 1015.6 |
| 20260831022220 | 87 | 117 | 5.2 | 7.8 | 0.00 | 0.00 | 0.00 | 45 | 1015.7 |
| 20260831021704 | 87 | 133 | 5.2 | 8.7 | 0.00 | 0.00 | 0.00 | 44 | 1015.5 |
| 20260831020701 | 87 | 136 | 4.3 | 7.8 | 0.00 | 0.00 | 0.00 | 44 | 1015.3 |
| 20260831015657 | 87 | 135 | 3.5 | 6.1 | 0.00 | 0.00 | 0.00 | 43 | 1015.2 |
| 20260831014656 | 88 | 144 | 3.5 | 6.1 | 0.00 | 0.00 | 0.00 | 42 | 1015.2 |
| 20260831013214 | 89 | 132 | 3.5 | 6.1 | 0.00 | 0.00 | 0.00 | 41 | 1014.9 |
| 20260831012215 | 89 | 144 | 3.5 | 6.1 | 0.00 | 0.00 | 0.00 | 40 | 1014.9 |
| 20260831011213 | 90 | 134 | 2.6 | 4.3 | 0.00 | 0.00 | 0.00 | 40 | 1014.8 |